Location: Bethera
(33.2010°N, 79.7880°W)
Time: 04:16:48
(UTC-04:00)

Amateur Radio Satellites - All Passes

Search period start: 02 May 2016 03:46
Search period end: 03 May 2016 03:46
Location: Bethera, 33.2010°N, 79.7880°W

Satellite Date Start Highest point End Downlink Frequencies (MHz)
Time Altitude Azimuth
ITAMSAT 1 02 May 03:59:41 04:04:51 68° 102° (ESE) 04:10:00 435.822/435.867
Gurwin Techsat 1B 02 May 04:09:22 04:14:15 38° 289° (WNW) 04:19:07 435.225
AO-7 02 May 04:17:25 04:24:52 35° 99° (E) 04:32:18 29.400- 29.500
MOZHAYETS 4 02 May 04:19:22 04:23:49 53° 75° (ENE) 04:28:16
CUSAT 1 02 May 04:22:06 04:28:05 26° 272° (W) 04:34:25 437.405
KKS-1 02 May 04:23:17 04:27:45 79° 258° (WSW) 04:32:15 437.445
JAS-2 02 May 04:24:05 04:28:00 15° 301° (WNW) 04:31:58 435.910
Oscar 19 02 May 04:26:16 04:27:13 10° 297° (WNW) 04:28:11 437.125/150
BEESAT 3 02 May 04:27:28 04:31:21 57° 60° (ENE) 04:35:13 437.485
BEESAT 2 02 May 04:33:00 04:36:42 36° 58° (ENE) 04:40:23 435.950
STARS 02 May 04:42:35 04:47:01 86° 77° (ENE) 04:51:29 437.465
DANDE 02 May 04:55:16 05:00:59 27° 269° (W) 05:07:29 436.750
RS-15 02 May 05:10:12 05:18:02 19° 30° (NNE) 05:25:54 29.354- 29.394
ITAMSAT 1 02 May 05:41:38 05:43:41 12° 296° (WNW) 05:45:44 435.822/435.867
HORYU 2 02 May 05:45:57 05:50:17 54° 101° (E) 05:54:35 437.375
AIST 2 02 May 05:57:30 06:00:41 21° 53° (NE) 06:03:51 435.215
MOZHAYETS 4 02 May 05:59:57 06:01:14 11° 268° (W) 06:02:32
CUBESAT XI-V 02 May 06:01:47 06:06:20 73° 76° (ENE) 06:10:57 437.345
NOAA 15 02 May 06:08:31 06:11:27 15° 93° (E) 06:14:22 137.62
AO-7 02 May 06:09:52 06:17:37 45° 294° (WNW) 06:25:22 29.400- 29.500
BEESAT 2 02 May 06:12:09 06:14:11 14° 252° (WSW) 06:16:14 435.950
YUBILEINY 02 May 06:24:42 06:33:04 49° 79° (E) 06:41:23 435.215
ISS 02 May 06:34:22 06:36:01 13° 126° (SE) 06:37:39 145.825
Cosmos 2504 02 May 06:40:06 06:42:15 11° 68° (ENE) 06:44:26 435.465 / 435.565
GOMX 1 02 May 06:56:38 06:59:29 14° 91° (E) 07:02:16 467.674
STRAND 1 02 May 06:59:11 07:03:19 25° 69° (ENE) 07:07:26 437.568
CUTE-I 02 May 07:01:21 07:06:09 34° 98° (E) 07:10:56 437.470
Cosmos 2491 02 May 07:02:01 07:10:26 52° 90° (E) 07:18:53 435.465 / 435.565
NOAA 18 02 May 07:06:37 07:11:55 51° 101° (E) 07:17:12 137.9125
BRITE-PL 02 May 07:16:21 07:21:56 53° 99° (E) 07:27:20 437.365/2234.400
RS-15 02 May 07:21:37 07:33:48 61° 57° (ENE) 07:45:52 29.354- 29.394
HORYU 2 02 May 07:25:00 07:26:19 11° 295° (WNW) 07:27:38 437.375
SO-50 02 May 07:25:24 07:30:11 57° 115° (ESE) 07:35:01 436.795
AIST 2 02 May 07:35:36 07:39:08 28° 248° (WSW) 07:42:40 435.215
M-CUBED/EXP-1 PRIME 02 May 07:40:00 07:42:43 19° 99° (E) 07:45:18 437.505
Cubesat XI-IV 02 May 07:45:03 07:50:25 87° 282° (WNW) 07:55:44 437.490
NOAA 15 02 May 07:46:18 07:51:29 54° 287° (WNW) 07:56:38 137.62
LilacSat-2 02 May 07:47:46 07:51:32 64° 284° (WNW) 07:55:15 437.200
PRISM 02 May 07:50:29 07:52:22 13° 67° (ENE) 07:54:16 437.425
AUBIESAT-1 02 May 07:58:58 08:02:11 26° 101° (E) 08:05:12 437.475
ISS 02 May 08:09:05 08:12:10 40° 320° (NW) 08:15:17 145.825
YUBILEINY 02 May 08:22:11 08:29:23 30° 275° (W) 08:36:36 435.215
Cosmos 2504 02 May 08:28:51 08:36:33 81° 84° (E) 08:44:50 435.465 / 435.565
CUTE 1.7 + AOD 2 02 May 08:30:22 08:32:55 16° 94° (E) 08:35:28 437.475
GOMX 1 02 May 08:32:35 08:37:54 56° 286° (WNW) 08:42:57 467.674
DOVE 4 02 May 08:32:39 08:37:45 71° 101° (E) 08:42:32 437.250
STRAND 1 02 May 08:37:51 08:42:18 30° 263° (W) 08:46:46 437.568
CUTE-I 02 May 08:41:44 08:45:58 25° 292° (WNW) 08:50:12 437.470
NOAA 18 02 May 08:48:37 08:52:07 18° 295° (WNW) 08:55:36 137.9125
BRITE-PL 02 May 08:56:03 08:59:52 19° 294° (WNW) 09:03:38 437.365/2234.400
SEEDS 02 May 08:58:16 09:01:42 24° 96° (E) 09:05:08 437.485
Cosmos 2491 02 May 09:00:09 09:07:30 29° 287° (WNW) 09:14:56 435.465 / 435.565
COMPASS 1 02 May 09:03:23 09:06:24 19° 95° (E) 09:09:26 437.405
SO-50 02 May 09:07:55 09:11:01 17° 311° (NW) 09:14:08 436.795
M-CUBED/EXP-1 PRIME 02 May 09:14:14 09:17:13 22° 295° (WNW) 09:20:02 437.505
CINEMA 3 02 May 09:21:44 09:26:20 72° 100° (E) 09:30:41 145.822/145.860
HO-68 02 May 09:22:22 09:29:30 68° 103° (ESE) 09:36:36 435.675
PRISM 02 May 09:23:30 09:27:18 38° 261° (W) 09:31:08 437.425
CANX-2 02 May 09:31:43 09:35:56 74° 283° (WNW) 09:40:08 2200.000
AUBIESAT-1 02 May 09:34:07 09:36:25 16° 297° (WNW) 09:38:37 437.475
AAUSAT CUBESAT 2 02 May 09:34:15 09:38:07 37° 98° (E) 09:41:58 437.432
RS-15 02 May 09:35:00 09:45:37 36° 255° (WSW) 09:56:10 29.354- 29.394
UNISAT 6 02 May 09:41:18 09:41:43 10° 65° (ENE) 09:42:07 437.425
Oscar 11 02 May 09:48:19 09:51:33 21° 95° (E) 09:54:46 145.826/435.025
TIGRISAT 02 May 09:56:41 09:59:20 15° 68° (ENE) 10:01:59 435.000
FUNcube-1 02 May 09:58:55 10:02:06 21° 95° (E) 10:05:15 145.935
PHONESAT 2.4 02 May 10:00:12 10:03:11 42° 149° (SSE) 10:06:12 2401.200-2431.200
CUTE 1.7 + AOD 2 02 May 10:05:01 10:08:48 33° 287° (WNW) 10:12:35 437.475
UWE-3 02 May 10:07:50 10:11:55 46° 99° (E) 10:15:54 435.000/436.395/437.385
DOVE 4 02 May 10:13:18 10:14:39 11° 297° (WNW) 10:16:01 437.250
CUBEBUG 2 02 May 10:13:43 10:18:02 86° 102° (ESE) 10:22:12 437.445
ANTELSAT 02 May 10:19:37 10:23:38 29° 71° (ENE) 10:27:35 437.575/2403.000
Cosmos 2504 02 May 10:25:04 10:29:03 15° 278° (W) 10:33:10 435.465 / 435.565
SEEDS 02 May 10:34:05 10:37:14 21° 289° (WNW) 10:40:23 437.485
COMPASS 1 02 May 10:38:28 10:41:54 26° 288° (WNW) 10:45:21 437.405
ZACube-1 02 May 10:39:59 10:44:11 78° 100° (E) 10:48:18 437.345
DELFI C3 02 May 10:53:17 10:57:14 60° 101° (E) 11:01:11 145.870
NANOSAT C BR1 02 May 11:07:59 11:10:38 16° 69° (ENE) 11:13:18 145.865
AAUSAT CUBESAT 2 02 May 11:11:05 11:13:15 14° 292° (WNW) 11:15:23 437.432
HO-68 02 May 11:11:39 11:16:31 20° 299° (WNW) 11:21:23 435.675
UNISAT 6 02 May 11:13:10 11:17:50 67° 259° (W) 11:22:26 437.425
Oscar 11 02 May 11:24:01 11:27:37 26° 289° (WNW) 11:31:11 145.826/435.025
TIGRISAT 02 May 11:31:11 11:35:38 44° 261° (W) 11:40:03 435.000
FUNcube-1 02 May 11:34:56 11:38:15 23° 289° (WNW) 11:41:32 145.935
PHONESAT 2.4 02 May 11:37:11 11:40:06 34° 344° (NNW) 11:43:01 2401.200-2431.200
ESTCUBE 1 02 May 11:45:38 11:48:38 17° 94° (E) 11:51:37 437.505/2401.250
UWE-3 02 May 11:46:32 11:47:53 11° 294° (WNW) 11:49:14 435.000/436.395/437.385
HUMSAT D 02 May 11:48:55 11:52:58 65° 284° (WNW) 11:56:59 437.325/437.525
ANTELSAT 02 May 11:56:39 12:00:16 22° 264° (W) 12:03:52 437.575/2403.000
QB50P2 02 May 11:58:20 12:02:36 76° 76° (ENE) 12:06:53 145.880/145.840
DUCHIFAT 1 02 May 11:58:53 12:03:06 64° 76° (ENE) 12:07:19 145.980
POLYITAN 1 02 May 12:00:28 12:04:45 77° 75° (ENE) 12:09:03 437.675
POPSAT HIP 1 02 May 12:03:14 12:07:31 81° 75° (ENE) 12:11:48 437.405
AIST 1 02 May 12:04:54 12:09:08 44° 80° (E) 12:13:20
QB50P1 02 May 12:06:31 12:10:49 90° 24° (NNE) 12:15:07 145.935-145.965
CUBEBUG 1 02 May 12:07:54 12:11:17 21° 96° (E) 12:14:38 437.445
GONETS M04 02 May 12:08:56 12:17:26 53° 79° (E) 12:25:50
50 SAT 02 May 12:23:46 12:27:12 37° 99° (E) 12:30:36 437.505
DX 1 02 May 12:32:01 12:36:04 36° 99° (E) 12:40:05 434.975-435.025
VELOX 1 02 May 12:32:54 12:37:09 42° 99° (E) 12:41:22 145.980
Cosmos 2499 02 May 12:36:56 12:44:19 43° 79° (E) 12:52:10 435.465 / 435.565
UKube-1 02 May 12:39:36 12:43:36 35° 99° (E) 12:47:34 .
NANOSAT C BR1 02 May 12:42:11 12:46:03 34° 262° (W) 12:49:57 145.865
BUGSAT 1 02 May 12:43:15 12:47:27 79° 258° (WSW) 12:51:43 437.445
JAS-2 02 May 12:45:04 12:49:55 27° 65° (ENE) 12:55:14 435.910
AO-85 02 May 12:46:13 12:51:24 48° 113° (ESE) 12:56:38 145.980
AISAT 02 May 13:04:46 13:09:14 74° 283° (WNW) 13:13:40 437.250
SPROUT 02 May 13:10:31 13:14:34 41° 99° (E) 13:18:36 437.525
PHONESAT 2.4 02 May 13:15:01 13:17:29 21° 0° (N) 13:19:58 2401.200-2431.200
ESTCUBE 1 02 May 13:21:22 13:25:29 35° 288° (WNW) 13:29:35 437.505/2401.250
CUBEBUG 1 02 May 13:43:45 13:47:29 27° 289° (WNW) 13:51:13 437.445
AIST 1 02 May 13:44:44 13:46:14 12° 274° (W) 13:47:44
TISAT 1 02 May 13:46:52 13:50:32 29° 97° (E) 13:54:11 437.305
Gurwin Techsat 1B 02 May 13:47:24 13:51:30 23° 68° (ENE) 13:55:36 435.225
Oscar 19 02 May 13:55:52 14:01:01 74° 75° (ENE) 14:06:12 437.125/150
50 SAT 02 May 13:59:52 14:00:35 10° 292° (WNW) 14:01:19 437.505
GONETS M04 02 May 14:06:42 14:13:40 28° 276° (W) 14:20:37
DX 1 02 May 14:09:11 14:11:55 16° 292° (WNW) 14:14:38 434.975-435.025
VELOX 1 02 May 14:10:48 14:13:13 14° 293° (WNW) 14:15:37 145.980
O/OREOS (USA 219) 02 May 14:14:45 14:16:54 13° 99° (E) 14:19:02 437.305
UKube-1 02 May 14:16:38 14:19:19 16° 292° (WNW) 14:21:59 .
AO-85 02 May 14:27:52 14:32:07 23° 308° (NW) 14:36:23 145.980
JAS-2 02 May 14:29:22 14:34:39 38° 264° (W) 14:40:37 435.910
Cosmos 2499 02 May 14:30:23 14:37:09 33° 272° (W) 14:44:20 435.465 / 435.565
ISS 02 May 14:40:11 14:43:03 27° 37° (NE) 14:45:54 145.825
SPROUT 02 May 14:47:58 14:50:08 14° 293° (WNW) 14:52:17 437.525
PHONESAT 2.4 02 May 14:51:55 14:54:52 35° 17° (NNE) 14:57:48 2401.200-2431.200
ITUPSAT 1 02 May 15:01:15 15:05:34 33° 98° (E) 15:09:52 437.325
SWISSCUBE 02 May 15:10:42 15:15:20 49° 100° (E) 15:19:56 437.505
AO-7 02 May 15:12:09 15:19:20 34° 63° (ENE) 15:26:30 29.400- 29.500
ITAMSAT 1 02 May 15:13:23 15:18:31 67° 74° (ENE) 15:23:39 435.822/435.867
TISAT 1 02 May 15:23:03 15:25:57 18° 291° (WNW) 15:28:50 437.305
Gurwin Techsat 1B 02 May 15:26:20 15:31:11 36° 262° (W) 15:36:04 435.225
CUSAT 1 02 May 15:40:23 15:43:25 52° 94° (E) 15:47:19 437.405
BEESAT 02 May 15:43:52 15:48:38 78° 284° (WNW) 15:53:23 436.000
PCSat 02 May 15:43:56 15:49:07 48° 110° (ESE) 15:54:19 145.827
O/OREOS (USA 219) 02 May 15:51:25 15:55:50 45° 292° (WNW) 16:00:15 437.305
SO-50 02 May 16:02:07 16:05:16 17° 50° (NE) 16:08:20 436.795
ISS 02 May 16:16:53 16:19:22 20° 232° (SW) 16:21:52 145.825
KKS-1 02 May 16:18:57 16:22:45 27° 97° (E) 16:26:31 437.445
MOZHAYETS 4 02 May 16:19:37 16:22:40 18° 94° (E) 16:25:43
DANDE 02 May 16:19:53 16:22:30 50° 95° (E) 16:25:34 436.750
PHONESAT 2.4 02 May 16:28:45 16:31:46 41° 211° (SSW) 16:34:46 2401.200-2431.200
STARS 02 May 16:37:03 16:40:25 21° 96° (E) 16:43:45 437.465
ITUPSAT 1 02 May 16:39:40 16:43:09 20° 292° (WNW) 16:46:37 437.325
HORYU 2 02 May 16:40:00 16:43:54 30° 71° (ENE) 16:47:47 437.375
SWISSCUBE 02 May 16:50:10 16:52:39 14° 294° (WNW) 16:55:09 437.505
ITAMSAT 1 02 May 16:56:59 16:58:21 11° 268° (W) 16:59:44 435.822/435.867
AO-7 02 May 17:03:56 17:11:47 47° 258° (WSW) 17:19:41 29.400- 29.500
Cosmos 2491 02 May 17:19:05 17:25:09 20° 69° (ENE) 17:31:08 435.465 / 435.565
NOAA 15 02 May 17:24:43 17:27:57 17° 65° (ENE) 17:31:10 137.62
Cubesat XI-IV 02 May 17:27:39 17:28:48 11° 62° (ENE) 17:29:57 437.490
PCSat 02 May 17:28:46 17:32:43 20° 306° (NW) 17:36:43 145.827
SO-50 02 May 17:41:32 17:45:59 45° 246° (WSW) 17:50:16 436.795
KKS-1 02 May 17:55:43 17:59:07 22° 291° (WNW) 18:02:31 437.445
MOZHAYETS 4 02 May 17:55:45 17:59:53 34° 287° (WNW) 18:04:00
CUBESAT XI-V 02 May 18:03:02 18:06:55 25° 96° (E) 18:10:48 437.345
STARS 02 May 18:13:01 18:16:42 26° 289° (WNW) 18:20:22 437.465
BEESAT 3 02 May 18:14:40 18:18:00 27° 112° (ESE) 18:21:20 437.485
HORYU 2 02 May 18:17:11 18:20:26 20° 264° (W) 18:23:41 437.375
CUTE-I 02 May 18:19:03 18:23:54 37° 71° (ENE) 18:28:45 437.470
M-CUBED/EXP-1 PRIME 02 May 18:22:00 18:25:10 18° 64° (ENE) 18:28:20 437.505
BEESAT 2 02 May 18:22:01 18:24:46 18° 110° (ESE) 18:27:31 435.950
BRITE-PL 02 May 18:23:06 18:27:20 34° 71° (ENE) 18:31:55 437.365/2234.400
JUGNU 02 May 18:24:25 18:28:09 17° 169° (S) 18:31:54 437.505
LilacSat-2 02 May 18:25:38 18:29:04 31° 73° (ENE) 18:32:32 437.200
NOAA 18 02 May 18:28:36 18:34:03 66° 74° (ENE) 18:39:31 137.9125
AUBIESAT-1 02 May 18:40:25 18:44:03 23° 65° (ENE) 18:47:40 437.475
NOAA 15 02 May 19:02:09 19:07:14 51° 260° (W) 19:12:23 137.62
Cubesat XI-IV 02 May 19:02:47 19:08:07 81° 257° (WSW) 19:13:28 437.490
Cosmos 2491 02 May 19:13:58 19:22:44 73° 267° (W) 19:31:25 435.465 / 435.565
STRAND 1 02 May 19:15:46 19:17:23 11° 92° (E) 19:18:58 437.568
YUBILEINY 02 May 19:19:48 19:28:24 65° 92° (E) 19:36:58 435.215
SRMSAT 02 May 19:25:00 19:27:04 12° 163° (SSE) 19:29:07 437.500
DOVE 4 02 May 19:33:02 19:37:48 44° 73° (ENE) 19:42:46 437.250
GOMX 1 02 May 19:35:31 19:40:25 84° 260° (W) 19:45:41 467.674
CUBESAT XI-V 02 May 19:40:19 19:44:10 26° 289° (WNW) 19:48:01 437.345
HO-68 02 May 19:46:53 19:53:03 33° 66° (ENE) 19:59:14 435.675
SEEDS 02 May 19:48:45 19:49:23 10° 67° (ENE) 19:50:01 437.485
BEESAT 3 02 May 19:52:44 19:55:39 20° 306° (NW) 19:58:36 437.485
AIST 2 02 May 19:53:14 19:54:29 11° 107° (ESE) 19:55:44 435.215
M-CUBED/EXP-1 PRIME 02 May 19:54:53 19:59:20 42° 257° (WSW) 20:03:48 437.505
BEESAT 2 02 May 19:58:55 20:02:23 28° 304° (NW) 20:05:52 435.950
CUTE-I 02 May 19:59:56 20:03:58 22° 264° (W) 20:08:03 437.470
LilacSat-2 02 May 20:01:25 20:03:26 14° 266° (W) 20:05:25 437.200
BRITE-PL 02 May 20:02:28 20:05:54 20° 267° (W) 20:09:34 437.365/2234.400
JUGNU 02 May 20:12:04 20:16:31 22° 179° (S) 20:21:00 437.505
NOAA 18 02 May 20:12:43 20:15:04 13° 267° (W) 20:17:25 137.9125
AUBIESAT-1 02 May 20:14:11 20:18:17 31° 258° (WSW) 20:22:25 437.475
CINEMA 3 02 May 20:18:16 20:22:56 41° 73° (ENE) 20:27:39 145.822/145.860
CANX-2 02 May 20:20:10 20:24:10 43° 74° (ENE) 20:28:10 2200.000
AAUSAT CUBESAT 2 02 May 20:21:48 20:24:07 15° 69° (ENE) 20:26:26 437.432
STRAND 1 02 May 20:51:51 20:56:53 64° 286° (WNW) 21:01:56 437.568
FUNcube-1 02 May 20:51:58 20:53:34 12° 67° (ENE) 20:55:10 145.935
CUTE 1.7 + AOD 2 02 May 20:52:46 20:56:58 83° 258° (WSW) 21:01:12 437.475
UWE-3 02 May 21:00:37 21:04:24 25° 71° (ENE) 21:08:09 435.000/436.395/437.385
Cosmos 2504 02 May 21:02:32 21:09:54 77° 94° (E) 21:17:03 435.465 / 435.565
CUBEBUG 2 02 May 21:06:56 21:11:25 43° 74° (ENE) 21:15:52 437.445
PRISM 02 May 21:09:02 21:12:54 36° 99° (E) 21:16:45 437.425
SRMSAT 02 May 21:11:18 21:15:33 20° 173° (S) 21:19:49 437.500
DOVE 4 02 May 21:12:22 21:15:39 17° 268° (W) 21:19:03 437.250
YUBILEINY 02 May 21:19:13 21:25:43 23° 289° (WNW) 21:32:14 435.215
SEEDS 02 May 21:20:32 21:24:35 51° 260° (W) 21:28:40 437.485
COMPASS 1 02 May 21:24:07 21:28:13 68° 258° (WSW) 21:32:21 437.405
AO-85 02 May 21:24:22 21:26:43 14° 46° (NE) 21:28:58 145.980
AIST 2 02 May 21:28:30 21:32:29 48° 301° (WNW) 21:36:31 435.215
ZACube-1 02 May 21:31:16 21:35:26 36° 73° (ENE) 21:39:33 437.345
HO-68 02 May 21:33:54 21:40:32 41° 261° (W) 21:47:12 435.675
DELFI C3 02 May 21:36:05 21:38:55 19° 71° (ENE) 21:41:45 145.870
RS-15 02 May 21:39:14 21:49:59 57° 110° (ESE) 22:01:17 29.354- 29.394
AAUSAT CUBESAT 2 02 May 21:55:33 21:59:17 34° 262° (W) 22:03:02 437.432
CINEMA 3 02 May 21:56:48 22:00:09 18° 267° (W) 22:03:32 145.822/145.860
CANX-2 02 May 21:58:39 22:00:11 12° 267° (W) 22:01:43 2200.000
JUGNU 02 May 22:00:55 22:04:55 18° 189° (S) 22:08:55 437.505
Oscar 11 02 May 22:13:38 22:17:53 58° 260° (W) 22:22:08 145.826/435.025
FUNcube-1 02 May 22:24:53 22:29:19 54° 260° (W) 22:33:43 145.935
HUMSAT D 02 May 22:35:42 22:39:46 46° 75° (ENE) 22:43:47 437.325/437.525
UWE-3 02 May 22:36:52 22:40:43 26° 264° (W) 22:44:34 435.000/436.395/437.385
CUBEBUG 2 02 May 22:45:24 22:48:09 15° 267° (W) 22:50:53 437.445
PRISM 02 May 22:45:32 22:47:52 15° 292° (WNW) 22:50:12 437.425
SRMSAT 02 May 22:59:37 23:04:08 22° 183° (S) 23:08:37 437.500
Cosmos 2504 02 May 23:00:16 23:03:56 14° 290° (WNW) 23:07:34 435.465 / 435.565
CUBEBUG 1 02 May 23:02:03 23:03:11 11° 66° (ENE) 23:04:18 437.445
AO-85 02 May 23:03:09 23:07:41 59° 245° (WSW) 23:11:48 145.980
ZACube-1 02 May 23:08:51 23:11:45 17° 266° (W) 23:14:39 437.345
UNISAT 6 02 May 23:09:39 23:13:33 33° 98° (E) 23:17:23 437.425
DELFI C3 02 May 23:10:28 23:13:37 23° 263° (W) 23:16:47 145.870
DX 1 02 May 23:24:12 23:27:15 19° 69° (ENE) 23:30:19 434.975-435.025
VELOX 1 02 May 23:26:36 23:30:04 23° 70° (ENE) 23:33:33 145.980
TIGRISAT 02 May 23:26:59 23:31:10 51° 100° (E) 23:35:18 435.000
UKube-1 02 May 23:30:55 23:33:51 18° 68° (ENE) 23:36:49 .
QB50P2 02 May 23:48:45 23:51:30 17° 95° (E) 23:54:12 145.880/145.840
DUCHIFAT 1 02 May 23:48:57 23:51:09 14° 94° (E) 23:53:19 145.980
POLYITAN 1 02 May 23:50:53 23:53:39 17° 95° (E) 23:56:23 437.675
ANTELSAT 02 May 23:51:35 23:55:53 73° 284° (WNW) 00:00:07 437.575/2403.000
RS-15 02 May 23:52:28 00:02:47 39° 312° (NW) 00:13:42 29.354- 29.394
POPSAT HIP 1 02 May 23:53:24 23:56:17 18° 95° (E) 23:59:07 437.405
QB50P1 02 May 23:56:27 23:59:33 20° 95° (E) 00:02:37 145.935-145.965
AISAT 02 May 23:57:40 00:02:01 56° 74° (ENE) 00:06:23 437.250
SPROUT 03 May 00:00:46 00:03:49 19° 69° (ENE) 00:06:52 437.525
HUMSAT D 03 May 00:14:25 00:15:33 11° 267° (W) 00:16:42 437.325/437.525
ESTCUBE 1 03 May 00:16:06 00:20:31 64° 259° (W) 00:24:59 437.505/2401.250
O/OREOS (USA 219) 03 May 00:28:05 00:30:21 14° 59° (ENE) 00:32:36 437.305
AIST 1 03 May 00:29:55 00:33:43 31° 91° (E) 00:37:34
BUGSAT 1 03 May 00:30:15 00:33:22 20° 95° (E) 00:36:25 437.445
NANOSAT C BR1 03 May 00:30:27 00:34:34 50° 100° (E) 00:38:38 145.865
50 SAT 03 May 00:31:44 00:35:11 40° 261° (W) 00:38:39 437.505
CUBEBUG 1 03 May 00:34:39 00:38:55 55° 259° (W) 00:43:15 437.445
TISAT 1 03 May 00:35:57 00:38:01 13° 67° (ENE) 00:40:04 437.305
PCSat 03 May 00:37:04 00:40:36 17° 52° (NE) 00:44:08 145.827
UNISAT 6 03 May 00:47:16 00:49:58 16° 292° (WNW) 00:52:39 437.425
SRMSAT 03 May 00:49:10 00:52:39 16° 193° (SSW) 00:56:08 437.500
DX 1 03 May 00:59:22 01:03:12 30° 262° (W) 01:07:03 434.975-435.025
VELOX 1 03 May 01:02:43 01:06:23 25° 263° (W) 01:10:04 145.980
GONETS M04 03 May 01:03:56 01:12:42 70° 92° (E) 01:21:28
UKube-1 03 May 01:05:49 01:09:38 31° 262° (W) 01:13:29 .
TIGRISAT 03 May 01:06:13 01:07:22 11° 294° (WNW) 01:08:29 435.000
Cosmos 2499 03 May 01:09:45 01:16:04 35° 88° (E) 01:22:18 435.465 / 435.565
DUCHIFAT 1 03 May 01:23:04 01:26:56 36° 287° (WNW) 01:30:46 145.980
QB50P2 03 May 01:23:35 01:27:19 31° 288° (WNW) 01:31:01 145.880/145.840
POLYITAN 1 03 May 01:25:46 01:29:27 30° 288° (WNW) 01:33:09 437.675
POPSAT HIP 1 03 May 01:28:23 01:32:03 29° 288° (WNW) 01:35:42 437.405
QB50P1 03 May 01:31:44 01:35:16 26° 289° (WNW) 01:38:47 145.935-145.965
SPROUT 03 May 01:35:47 01:39:31 29° 263° (W) 01:43:18 437.525
JAS-2 03 May 01:41:49 01:49:12 42° 97° (E) 01:56:23 435.910
ITUPSAT 1 03 May 02:04:17 02:08:08 25° 69° (ENE) 02:11:59 437.325
BUGSAT 1 03 May 02:05:14 02:08:39 25° 289° (WNW) 02:12:02 437.445
O/OREOS (USA 219) 03 May 02:05:40 02:10:00 47° 255° (WSW) 02:14:16 437.305
NANOSAT C BR1 03 May 02:08:39 02:09:48 11° 294° (WNW) 02:10:57 145.865
AIST 1 03 May 02:08:42 02:11:22 16° 285° (WNW) 02:14:02
TISAT 1 03 May 02:09:14 02:13:15 41° 261° (W) 02:17:18 437.305
Gurwin Techsat 1B 03 May 02:09:17 02:11:17 12° 92° (E) 02:13:17 435.225
Oscar 19 03 May 02:12:01 02:16:48 36° 98° (E) 02:21:33 437.125/150
SWISSCUBE 03 May 02:13:09 02:17:27 35° 72° (ENE) 02:21:45 437.505
RS-15 03 May 02:15:23 02:20:14 13° 344° (NNW) 02:25:10 29.354- 29.394
CUSAT 1 03 May 02:15:31 02:22:37 44° 78° (ENE) 02:30:13 437.405
PCSat 03 May 02:19:03 02:24:22 58° 248° (WSW) 02:29:39 145.827
BEESAT 03 May 02:45:50 02:50:34 75° 76° (ENE) 02:55:19 436.000
DANDE 03 May 02:58:15 03:04:55 47° 79° (E) 03:12:45 436.750
Cosmos 2499 03 May 03:02:53 03:09:03 31° 284° (WNW) 03:15:13 435.465 / 435.565
GONETS M04 03 May 03:03:52 03:10:10 21° 290° (WNW) 03:16:31
KKS-1 03 May 03:13:55 03:16:37 16° 67° (ENE) 03:19:18 437.445
MOZHAYETS 4 03 May 03:19:41 03:20:41 11° 66° (ENE) 03:21:42
AO-7 03 May 03:21:55 03:24:16 11° 91° (E) 03:26:38 29.400- 29.500
JAS-2 03 May 03:26:57 03:33:55 37° 292° (WNW) 03:40:51 435.910
ITAMSAT 1 03 May 03:30:49 03:35:29 33° 98° (E) 03:40:07 435.822/435.867
STARS 03 May 03:31:18 03:33:02 12° 66° (ENE) 03:34:45 437.465
